Juliana Airport, Sint Maarten

10:52 PM AST on December 10, 2017 (GMT -0400)
Princess Juliana International

Weather History for TNCM - September, 2012

Change the Weather History Date:

Sunday, September 23, 2012

  Actual Average Record
Temperature  
Mean Temperature 86 °F -  
Max Temperature 89 °F 86 °F 89 °F (2000)
Min Temperature 82 °F 76 °F 73 °F (2008)
Cooling Degree Days 20    
Growing Degree Days 36 (Base 50)    
Moisture  
Dew Point 73 °F    
Average Humidity 67    
Maximum Humidity 79    
Minimum Humidity 52    
Precipitation  
Precipitation 0.00 in 0.15 in - ()
Sea Level Pressure  
Sea Level Pressure 30.01 in    
Wind  
Wind Speed 10 mph ()    
Max Wind Speed 17 mph    
Max Gust Speed -    
Visibility 8.2 miles    
Events Rain    
Averages and records for this station are not official NWS values.
T = Trace of Precipitation, MM = Missing Value Source: Averaged Metar Reports

Daily Weather History Graph

Daily Weather History Graph

Search for Another Location

Airport or City:

Trip Planner

Search our weather history database for the weather conditions in past years. The results will help you decide how hot, cold, wet, or windy it might be!

Date:

Astronomy

Sep. 23, 2012 Rise Set
Actual Time 6:01 AM AST 6:07 PM AST
Civil Twilight 5:39 AM AST 6:29 PM AST
Nautical Twilight 5:14 AM AST 6:54 PM AST
Astronomical Twilight 4:49 AM AST 7:19 PM AST
Moon 1:21 PM AST (9/23) No Moon Set
Length of Visible Light 12h 49m
Length of Day
12h 05m
First Quarter, 60% of the Moon is Illuminated
Sep 23
First Quarter
Sep 29
Full
Oct 8
Last Quarter
Oct 15
New
Oct 21
First Quarter

Hourly Weather History & Observations

Time (AST) Temp. Heat Index Dew Point Humidity Pressure Visibility Wind Dir Wind Speed Gust Speed Precip Events Conditions
12:00 AM 84.2 °F 90.9 °F 73.4 °F 70% 30.01 in 6.2 mi ESE 11.5 mph - N/A   Partly Cloudy
1:00 AM 84.2 °F 90.9 °F 73.4 °F 70% 30.01 in 6.2 mi ESE 11.5 mph - N/A   Scattered Clouds
2:00 AM 83 °F - 74 °F 69% 30.01 in 19 mi ESE 10.4 mph - -   Partly Cloudy
2:00 AM 84.2 °F 92.3 °F 75.2 °F 74% 30.01 in 6.2 mi ESE 10.4 mph - N/A   Scattered Clouds
3:00 AM 84.2 °F 90.9 °F 73.4 °F 70% 29.98 in 6.2 mi East 9.2 mph - N/A   Partly Cloudy
4:00 AM 82.4 °F 88.2 °F 73.4 °F 74% 29.98 in 6.2 mi East 10.4 mph - N/A   Partly Cloudy
5:00 AM 83 °F - 73 °F 65% 29.99 in 19 mi ESE 10.4 mph - -   Scattered Clouds
5:00 AM 82.4 °F 88.2 °F 73.4 °F 74% 29.98 in 6.2 mi East 10.4 mph - N/A   Partly Cloudy
6:00 AM 82.4 °F 88.2 °F 73.4 °F 74% 30.01 in 6.2 mi East 10.4 mph - N/A   Partly Cloudy
7:00 AM 84.2 °F 90.9 °F 73.4 °F 70% 30.01 in 6.2 mi East 9.2 mph - N/A   Partly Cloudy
8:00 AM 86 °F - 73 °F 57% 30.05 in 19 mi East 9.2 mph - - Rain Light Rain Showers
8:00 AM 86.0 °F 93.4 °F 73.4 °F 66% 30.04 in 6.2 mi East 9.2 mph - N/A   Partly Cloudy
9:00 AM 87.8 °F 93.8 °F 71.6 °F 58% 30.04 in 6.2 mi East 17.3 mph - N/A   Partly Cloudy
10:00 AM 87.8 °F 95.6 °F 73.4 °F 62% 30.04 in 6.2 mi ESE 12.7 mph - N/A   Scattered Clouds
11:00 AM 87 °F - 72 °F 54% 30.05 in 19 mi ESE 11.5 mph - -   Partly Cloudy
11:00 AM 87.8 °F 95.6 °F 73.4 °F 62% 30.04 in 6.2 mi ESE 11.5 mph - N/A   Scattered Clouds
12:00 PM 87.8 °F 95.6 °F 73.4 °F 62% 30.04 in 6.2 mi ESE 12.7 mph - N/A   Scattered Clouds
1:00 PM 89.6 °F 98.2 °F 73.4 °F 59% 30.01 in 6.2 mi East 11.5 mph - N/A   Scattered Clouds
2:00 PM 87.8 °F 91.4 °F 68.0 °F 52% 29.98 in 6.2 mi East 15.0 mph - N/A   Scattered Clouds
3:00 PM 87.8 °F 95.6 °F 73.4 °F 62% 29.98 in 6.2 mi East 13.8 mph - N/A   Scattered Clouds
4:00 PM 86.0 °F 93.4 °F 73.4 °F 66% 29.95 in 6.2 mi East 15.0 mph - N/A   Scattered Clouds
5:00 PM 85 °F - 73 °F 61% 29.98 in 12 mi East 12.7 mph - -   Scattered Clouds
5:00 PM 86.0 °F 93.4 °F 73.4 °F 66% 29.98 in 6.2 mi East 12.7 mph - N/A   Partly Cloudy
6:00 PM 84.2 °F 92.3 °F 75.2 °F 74% 29.98 in 6.2 mi East 11.5 mph - N/A   Partly Cloudy
7:00 PM 84.2 °F 90.9 °F 73.4 °F 70% 29.98 in 6.2 mi East 12.7 mph - N/A   Scattered Clouds
8:00 PM 84 °F - 73 °F 63% 30.01 in 12 mi ESE 12.7 mph - -  
8:00 PM 84.2 °F 90.9 °F 73.4 °F 70% 30.01 in 6.2 mi ESE 12.7 mph - N/A   Scattered Clouds
9:00 PM 84.2 °F 90.9 °F 73.4 °F 70% 30.01 in 6.2 mi East 12.7 mph - N/A   Scattered Clouds
10:00 PM 84.2 °F 92.3 °F 75.2 °F 74% 30.01 in 6.2 mi East 10.4 mph - N/A   Scattered Clouds
11:00 PM 82 °F - 74 °F 72% 30.02 in 6 mi East 10.4 mph - - Rain Light Rain Showers
11:00 PM 82.4 °F 89.5 °F 75.2 °F 79% 30.01 in 6.2 mi East 10.4 mph - N/A Rain Light Rain Showers